Dewpoint
58 54 51 44 39 39 37 36 42 42 44 47 50 50 50 52 53 56 67 66 63 66 68 65 74 75 76 77 77 77 77 77 76 76 76 77 76 76 76 76 76 75 75 75 74 74 74 74 73
47 40 44 39 40 38 38 37 38 40 45 47 50 52 54 55 57 63 64 66 62 65 69 67 75 75 75 76 77 77 77 77 77 76 76 76 76 75 75 76 76 75 75 75 74 74 74 74 73
47 38 35 33 34 38 37 43 37 39 43 45 46 51 52 55 59 61 64 66 67 65 67 75 75 75 75 75 76 77 77 77 76 76 76 76 75 75 75 75 75 75 75 75 74 74 74 74 73
37 35 33 24 35 39 38 48 39 39 41 42 43 49 55 56 59 62 65 64 62 62 70 75 75 75 75 75 75 76 76 76 76 76 75 75 74 74 74 74 74 74 75 75 75 74 75 74 73
32 29 24 26 32 31 30 34 38 38 39 42 43 45 54 60 64 66 67 64 61 60 67 69 76 74 74 74 74 75 76 76 76 76 75 74 74 73 73 73 73 73 73 74 74 74 74 74 74
24 22 20 20 29 28 27 35 38 37 39 43 45 44 53 59 61 65 67 66 65 64 65 70 75 75 75 74 74 75 76 76 76 75 75 74 74 73 73 73 73 73 73 73 74 74 74 74 74
23 20 15 14 19 23 27 34 36 40 41 48 36 41 58 59 61 64 63 64 63 63 64 68 69 74 75 75 75 74 75 75 75 75 75 74 74 74 73 73 73 73 74 74 74 74 74 74 74
13 12 14 14 16 22 25 30 31 36 36 36 29 33 58 62 59 59 59 62 62 61 62 66 69 68 68 67 75 75 75 75 75 75 75 75 74 74 73 74 74 74 74 74 75 75 75 76 75
12 10 13 16 17 23 25 24 35 31 35 30 28 31 46 60 58 55 56 59 63 61 61 63 64 67 67 65 69 74 74 74 75 74 74 73 65 65 67 70 72 74 75 75 75 75 75 75 75
12 15 17 18 21 21 20 22 29 28 29 32 26 32 43 54 58 55 52 56 59 59 60 62 63 65 65 65 70 70 69 68 68 68 70 68 68 69 67 70 75 75 75 75 75 75 75 74 65
13 15 17 16 19 17 17 15 18 22 27 27 22 27 37 48 54 50 47 49 54 57 60 61 67 68 64 64 67 66 66 68 71 71 72 74 73 73 68 66 68 70 72 68 70 70 69 66 65
12 15 13 13 13 12 11 14 18 23 22 22 25 35 34 38 40 40 41 50 50 64 58 63 67 68 68 67 66 65 62 62 63 65 67 71 68 69 69 67 70 70 68 70 70 67 68 69 65
11 13 11 11 10 11 12 13 19 25 23 24 31 31 36 39 40 38 41 53 59 58 62 63 67 70 72 71 67 65 60 55 57 58 59 58 58 63 60 62 63 63 64 63 65 70 70 67 67
13 9 10 10 13 13 15 18 20 28 27 26 28 31 31 34 36 40 46 48 61 66 65 66 67 70 68 68 66 62 58 57 55 54 57 57 58 63 54 53 52 51 53 58 61 61 65 68 65
12 12 13 13 13 13 16 20 25 30 29 29 30 31 33 34 40 43 44 53 63 65 66 65 63 63 64 63 60 58 54 51 52 54 58 58 59 61 63 52 52 54 58 55 55 57 58 58 58
13 15 14 18 16 16 16 21 28 30 30 31 33 33 36 44 47 49 47 56 61 62 64 64 59 61 59 61 58 54 54 53 53 53 53 53 53 57 60 50 52 56 56 52 54 56 54 53 51
17 13 16 18 18 18 17 24 31 32 33 34 35 37 40 44 49 52 50 50 57 61 62 60 59 58 58 59 58 58 59 54 54 52 50 54 52 51 56 51 53 59 49 50 53 54 58 57 57
15 14 14 15 20 18 17 23 31 32 32 34 36 39 42 45 49 52 52 54 55 58 61 60 59 60 61 58 59 54 52 52 51 51 51 54 52 52 56 52 58 58 52 51 56 61 56 56 54
18 16 15 17 21 21 19 24 29 33 32 33 35 38 41 44 48 51 53 54 56 58 59 59 59 60 58 53 49 50 49 51 49 50 53 54 54 54 59 54 56 56 56 59 60 56 58 49 52
17 17 17 18 20 22 20 25 30 32 34 35 35 37 38 41 44 48 51 54 55 58 59 59 60 62 59 55 57 56 55 51 52 53 57 57 56 56 57 59 59 62 55 62 59 59 53 49 49
19 20 20 20 21 23 23 22 29 33 34 34 35 36 37 39 40 43 45 48 50 53 56 59 60 61 62 62 58 59 59 60 54 58 59 60 56 57 59 58 60 62 61 52 58 58 58 48 49
19 23 20 17 18 15 23 18 29 33 34 34 34 35 36 38 39 41 41 43 44 45 47 50 54 56 56 59 59 60 56 54 56 55 56 58 57 58 58 60 60 64 57 61 57 53 56 57 50
19 18 15 15 15 17 13 14 24 31 31 32 35 36 38 38 38 38 40 41 41 42 41 45 49 52 54 56 57 53 57 51 51 51 58 62 60 59 54 60 62 62 58 60 63 59 59 53 49
19 17 18 19 16 14 16 15 7 22 28 25 33 35 37 37 37 38 39 40 39 40 41 43 47 52 52 52 54 59 58 55 52 53 52 49 47 48 56 54 61 63 61 61 59 60 59 58 56
18 20 18 17 16 14 18 16 14 31 31 30 29 34 36 36 35 35 36 36 38 39 41 43 46 48 49 48 50 53 58 59 58 56 49 52 46 46 54 61 60 57 62 60 61 62 60 58 56
16 19 18 17 14 7 12 13 27 32 33 33 34 35 36 34 34 35 34 35 34 38 41 42 44 45 45 46 50 54 55 47 49 52 50 48 48 48 56 57 58 59 59 61 62 61 56 60 55
20 24 21 23 25 16 10 13 26 31 31 32 32 33 33 36 37 35 34 35 37 38 40 40 42 42 44 47 52 54 54 54 52 57 57 49 54 48 53 55 56 56 57 59 62 60 60 59 59
22 22 26 27 25 16 9 12 22 28 28 27 29 30 32 33 33 32 33 37 37 37 38 39 39 41 43 43 45 47 52 52 52 51 52 52 51 52 53 54 54 56 56 57 61 60 60 58 56
24 24 25 26 26 22 17 14 26 29 29 29 30 31 37 37 34 32 32 35 34 33 31 36 37 38 39 41 45 48 48 49 49 49 48 49 49 50 50 50 51 52 53 56 59 61 57 55 55
21 22 23 31 28 24 23 23 31 31 30 33 34 36 38 38 31 29 29 30 31 31 33 35 40 37 39 41 43 45 46 46 48 47 48 48 49 49 48 48 48 49 50 54 54 55 53 52 53
Lifted_Index
2 2 1 0 -1 -1 -1 -1 -2 -2 -2 -2 -3 -3 -3 -3 -3 -4 -4 -4 -3 -3 -3 -3 -4 -5 -5 -5 -5 -5 -4 -4 -4 -3 -3 -3 -3 -3 -3 -3 -3 -3 -3 -3 -3 -3 -3 -2 -2
2 2 1 0 -1 -1 -0 -1 -1 -2 -2 -2 -3 -3 -3 -3 -3 -4 -4 -4 -3 -3 -4 -4 -4 -5 -5 -5 -5 -5 -5 -4 -4 -4 -3 -3 -3 -3 -3 -3 -4 -4 -4 -4 -3 -3 -3 -3 -2
2 2 1 -0 -1 -1 -0 -0 -1 -2 -2 -2 -2 -3 -3 -3 -4 -4 -4 -4 -3 -3 -4 -5 -5 -5 -5 -5 -5 -5 -5 -5 -4 -4 -4 -3 -3 -3 -3 -4 -4 -5 -4 -4 -4 -4 -4 -3 -3
2 1 1 -0 -0 -0 -0 -1 -2 -2 -2 -2 -2 -2 -3 -3 -4 -4 -4 -4 -3 -3 -5 -6 -6 -6 -5 -5 -5 -5 -5 -5 -5 -5 -4 -4 -4 -3 -4 -4 -5 -5 -5 -5 -5 -5 -4 -4 -4
2 1 0 -0 -0 -0 -0 -1 -2 -3 -2 -2 -2 -2 -3 -3 -4 -5 -5 -4 -3 -4 -5 -6 -6 -6 -5 -5 -5 -5 -6 -6 -6 -6 -5 -5 -4 -4 -4 -4 -4 -5 -5 -5 -5 -5 -5 -5 -5
2 1 -0 -0 -0 0 -0 -1 -2 -2 -2 -2 -2 -2 -4 -4 -5 -5 -5 -5 -4 -4 -5 -5 -6 -6 -6 -5 -5 -5 -5 -6 -6 -6 -6 -5 -5 -5 -4 -4 -5 -5 -5 -5 -5 -5 -5 -5 -5
1 0 -1 -1 -0 -0 -0 -1 -2 -2 -2 -1 -1 -2 -4 -5 -5 -5 -5 -5 -5 -4 -5 -5 -6 -6 -6 -5 -6 -6 -6 -6 -6 -6 -6 -5 -5 -5 -5 -5 -5 -5 -5 -5 -6 -6 -6 -5 -5
1 0 -1 -1 -1 -0 0 -0 -1 -1 -1 -0 0 -1 -3 -4 -5 -5 -5 -5 -5 -4 -5 -5 -6 -6 -5 -5 -6 -6 -6 -6 -6 -6 -6 -6 -5 -5 -4 -4 -4 -5 -5 -5 -6 -6 -6 -6 -5
1 0 -1 -1 -1 -0 0 -0 -1 -1 -0 0 1 0 -2 -4 -4 -4 -4 -4 -5 -4 -5 -5 -6 -6 -6 -6 -6 -6 -6 -6 -6 -6 -6 -6 -5 -4 -4 -4 -4 -5 -5 -5 -5 -5 -5 -5 -5
1 0 -0 0 0 0 0 -0 -0 0 0 1 1 1 -1 -3 -4 -4 -3 -3 -4 -4 -5 -5 -6 -6 -6 -6 -6 -6 -6 -6 -7 -7 -7 -7 -6 -6 -5 -5 -5 -5 -5 -5 -5 -5 -5 -4 -4
0 0 1 1 1 1 0 1 1 1 1 2 2 1 -0 -2 -3 -3 -2 -2 -3 -4 -5 -5 -6 -6 -6 -6 -6 -6 -6 -6 -6 -7 -7 -8 -8 -7 -7 -7 -7 -6 -6 -5 -5 -4 -4 -4 -3
1 1 2 2 3 2 1 2 2 3 3 3 2 1 0 -1 -2 -1 -1 -2 -3 -4 -5 -6 -6 -7 -7 -7 -6 -5 -4 -4 -4 -5 -5 -6 -6 -6 -6 -6 -6 -6 -6 -6 -5 -4 -4 -4 -3
1 2 3 3 3 3 2 3 3 3 3 3 2 2 1 0 -0 -0 -1 -2 -4 -5 -5 -6 -7 -7 -7 -7 -6 -4 -3 -1 -1 -1 -1 -2 -2 -3 -3 -3 -3 -4 -4 -4 -4 -4 -4 -4 -4
2 2 3 3 3 3 3 3 4 3 3 3 3 2 2 1 1 0 -1 -3 -5 -6 -6 -6 -6 -6 -6 -5 -4 -2 -1 0 1 1 1 1 0 -0 0 0 0 -0 -1 -1 -2 -2 -2 -2 -3
2 2 2 3 3 3 3 3 3 3 3 3 3 3 2 2 1 1 -0 -2 -5 -6 -6 -5 -4 -4 -3 -3 -2 -0 1 1 2 2 2 2 1 1 1 2 2 1 1 0 0 -0 -0 -1 -1
2 1 1 2 3 3 3 2 3 3 3 3 3 2 2 1 1 1 0 -2 -4 -5 -5 -4 -3 -2 -2 -1 -0 1 2 2 3 3 3 3 3 3 2 3 2 2 2 2 1 0 0 0 0
1 0 -0 1 2 3 2 2 3 3 3 3 2 2 2 1 1 1 0 -1 -2 -3 -3 -3 -2 -2 -1 -1 0 1 2 2 3 3 3 3 3 3 3 3 2 2 2 2 1 0 0 -0 -0
0 0 -0 0 2 2 2 2 3 3 3 3 2 2 2 2 1 1 1 0 -1 -2 -2 -2 -2 -1 -1 0 1 1 2 2 3 3 3 3 3 3 2 2 1 1 1 1 0 -0 -0 -0 -0
1 1 -0 0 2 3 3 3 3 3 3 3 3 2 2 2 2 1 1 0 -0 -1 -1 -2 -1 -1 -1 0 1 1 1 1 2 2 2 2 2 2 1 1 1 0 0 -0 -1 -1 -0 0 0
2 1 1 1 3 3 3 3 3 3 3 3 3 3 3 3 2 2 1 0 -0 -1 -1 -1 -2 -2 -1 -1 -1 -1 -1 -0 -0 0 0 0 1 1 0 0 0 -0 -0 -1 -1 -1 -0 0 1
2 2 2 2 3 3 3 3 3 3 3 3 3 3 3 3 2 2 2 2 1 0 -0 -1 -1 -1 -2 -1 -1 -1 -2 -2 -1 -1 -1 -1 -0 -0 -0 -0 -1 -1 -1 -1 -1 -0 0 1 1
3 3 4 4 4 3 2 2 1 2 3 3 3 3 3 3 3 3 3 2 2 2 2 1 1 0 -0 -1 -1 -1 -1 -1 -1 -1 -2 -1 -1 -1 -1 -1 -1 -2 -2 -1 -1 -0 0 1 1
4 5 5 4 4 3 2 1 0 1 2 2 3 3 3 3 3 3 3 3 3 3 3 3 2 2 1 0 -0 -0 -0 -0 -0 -1 -1 -1 -1 -0 -0 -1 -2 -2 -2 -2 -1 -1 0 1 1
5 5 4 4 3 2 1 0 0 0 1 2 2 2 2 3 3 3 3 3 3 3 3 3 3 2 2 1 1 0 -0 -0 -0 -0 0 0 1 1 0 -1 -2 -2 -2 -2 -2 -1 -0 0 1
5 4 3 2 1 0 1 1 0 1 1 2 2 2 2 3 3 3 3 3 3 3 3 2 2 2 2 2 1 1 -0 -0 -0 -0 0 1 1 1 1 -1 -1 -1 -2 -2 -2 -1 -1 0 0
5 4 3 2 1 0 1 0 0 1 2 2 2 2 3 3 3 4 4 4 3 3 2 2 2 1 1 1 1 0 -0 -0 -1 -1 -0 0 1 1 0 -0 -1 -1 -1 -2 -2 -2 -1 -0 0
5 4 4 3 2 1 0 -0 -0 1 2 2 2 2 3 3 3 4 4 3 3 2 2 2 1 1 1 1 0 -0 -0 -0 -1 -1 -0 0 1 1 1 0 -0 -0 -1 -2 -2 -2 -1 -0 -0
4 4 4 3 2 1 0 0 0 1 2 2 2 2 3 3 3 4 3 3 2 2 2 2 2 2 2 2 1 1 1 0 0 1 1 1 2 2 2 1 1 1 -0 -1 -2 -2 -1 -0 -0
4 4 3 3 2 1 1 1 1 1 2 2 2 3 3 3 3 3 3 2 2 3 3 2 2 3 3 3 3 3 3 3 3 3 3 4 4 4 3 3 3 2 1 0 -1 -1 -1 0 0
4 4 3 3 2 1 1 1 1 2 2 2 2 3 3 3 4 3 2 2 3 3 3 3 3 3 4 4 4 4 4 4 4 5 5 5 5 5 5 5 4 4 3 1 0 -0 0 1 1